Home > Weather > Ilmenau > Past weeks

Flag for Germany Past Weather in Ilmenau, Thuringia, Germany — Yesterday and Last 2 Weeks

Now
54 °F

Clear.


Feels Like: 53 °F
Forecast: 55 / 62 °F
Wind: 5 mph from South

Location: Erfurt-Bindersleben

Current Time: May 31, 2016 at 4:14:11 AM

Latest Report: May 31, 2016 at 3:20 AM


Visibility: 10 mi

Pressure: 29.80 "Hg

Humidity: 100%

Dew Point: 54 °F

Location of IlmenauLocation

Past Weather in Ilmenau — Graph

°F

Ilmenau Temperature Yesterday

Maximum temperature yesterday: 68 °F (at 11:50 AM)
Minimum temperature yesterday: 57 °F (at 11:20 PM)
Average temperature yesterday: 64 °F

High & Low Weather Summary for the Past Weeks

 TemperatureHumidityPressure
High82 °F (May 22, 2:20 PM)100% (May 27, 10:50 AM)30.09 "Hg (May 27, 10:50 AM)
Low39 °F (May 16, 4:20 AM)25% (May 22, 2:50 PM)29.59 "Hg (May 30, 2:50 AM)
Average57 °F74%29.92 "Hg
* Reported May 16 2:20 AM — May 31 2:50 AM, Ilmenau, Weather by CustomWeather, © 2016

Note: Actual official high and low records may vary slightly from our data, if they occured in-between our weather recording intervals... More about our weather records

Advertising

Ilmenau Weather History for the Previous 24 Hours

Scroll right to see more
 ConditionsComfort  
Time TempWeatherWind HumidityBarometerVisibility
2:50 AM
Tue, May 31
55 °FClear.7 mph94%29.77 "Hg10 mi
2:20 AM55 °FClear.7 mph94%29.77 "Hg10 mi
1:50 AM57 °FClear.5 mph88%29.77 "Hg10 mi
1:20 AM57 °FClear.7 mph88%29.77 "Hg10 mi
12:50 AM57 °FClear.6 mph94%29.77 "Hg10 mi
12:20 AM57 °FPassing clouds.6 mph94%29.77 "HgN/A
11:50 PM
Mon, May 30
59 °FPassing clouds.6 mph88%29.77 "HgN/A
11:20 PM57 °FClear.5 mph94%29.77 "Hg10 mi
10:50 PM59 °FClear.7 mph88%29.74 "Hg10 mi
10:20 PM59 °FClear.8 mph88%29.74 "Hg10 mi
9:50 PM59 °FScattered clouds.8 mph88%29.74 "HgN/A
9:20 PM61 °FScattered clouds.7 mph88%29.74 "HgN/A
8:50 PM61 °FScattered showers. Scattered clouds.10 mph88%29.71 "HgN/A
8:20 PM63 °FSprinkles. Partly sunny.10 mph83%29.71 "HgN/A
7:50 PM64 °FPartly sunny.10 mph78%29.71 "HgN/A
7:20 PM64 °FPartly sunny.12 mph78%29.71 "HgN/A
6:50 PM66 °FPartly sunny.12 mph73%29.68 "HgN/A
6:20 PM68 °FPartly sunny.12 mph69%29.68 "HgN/A
5:50 PM68 °FScattered showers. Scattered clouds.9 mph64%29.68 "HgN/A
5:20 PM66 °FScattered showers. Scattered clouds.10 mph73%29.68 "HgN/A
4:50 PM68 °FScattered clouds.9 mph69%29.68 "HgN/A
4:20 PM66 °FScattered clouds.10 mph73%29.68 "HgN/A
3:50 PM64 °FSprinkles. Partly sunny.8 mph83%29.68 "HgN/A
3:20 PM66 °FSprinkles. Partly sunny.8 mph68%29.68 "HgN/A
2:50 PM66 °FScattered showers. Partly sunny.10 mph68%29.68 "HgN/A
2:20 PM68 °FScattered clouds.10 mph64%29.68 "HgN/A
1:50 PM66 °FPartly sunny.12 mph68%29.68 "HgN/A
1:20 PM68 °FScattered clouds.14 mph69%29.68 "HgN/A
12:50 PM68 °FScattered clouds.16 mph69%29.65 "HgN/A
12:20 PM66 °FScattered clouds.18 mph73%29.65 "HgN/A
11:50 AM68 °FMild.15 mph73%29.65 "HgN/A
11:20 AM66 °FScattered clouds.13 mph73%29.65 "HgN/A
10:50 AM66 °FScattered clouds.10 mph73%29.62 "HgN/A
10:20 AM66 °FScattered clouds.14 mph73%29.62 "HgN/A
9:50 AM66 °FScattered clouds.13 mph78%29.62 "HgN/A
9:20 AM63 °FPartly sunny.6 mph94%29.62 "HgN/A
8:50 AM63 °FBroken clouds.5 mph94%29.62 "HgN/A
8:20 AM61 °FThundershowers. Fog.3 mph94%29.62 "HgN/A
7:50 AM59 °FThunderstorms. Fog.2 mph100%29.59 "Hg2 mi
7:20 AM59 °FThunderstorms. Fog.5 mph100%29.59 "Hg1 mi
6:50 AM61 °FThunderstorms. Fog.1 mph94%29.62 "Hg1 mi
6:20 AM61 °FThunderstorms. Fog.3 mph100%29.59 "Hg1 mi
5:50 AM63 °FFog.2 mph94%29.59 "Hg1 mi
5:20 AM63 °FFog.5 mph94%29.62 "Hg1 mi
4:50 AM63 °FFog.5 mph94%29.62 "Hg1 mi
4:20 AM63 °FFog.7 mph100%29.62 "Hg1 mi
Weather by CustomWeather, © 2016

See weather overviewHow to use our weather pages